JAL8118 RJFK-RJBE

Flight info

Callsign JAL8118
Flight time N/A
Altitude 35000
Route MIDAI M750 MADOG Y53 SUC Y537 LOVGI Y353 AVKUL
Aircraft A359/H-SDE2E3GHIJ3J4J5LM1ORWXY/LB1D1

Departure

Time 2026-04-28 13:32
Airport Kagoshima Airport (RJFK)

Arrival

Time N/A
Airport Kobe Airport (RJBE)
Time Latitude Longitude Altitude Speed Heading
2026-04-28 13:25 31.80309 130.71704 916 ft 0 kts 157°
2026-04-28 13:28 31.80293 130.71716 916 ft 9 kts 148°
2026-04-28 13:29 31.80232 130.71763 911 ft 13 kts 146°
2026-04-28 13:29 31.80145 130.71833 908 ft 18 kts 146°
2026-04-28 13:29 31.80031 130.71920 905 ft 22 kts 149°
2026-04-28 13:29 31.79884 130.72019 897 ft 27 kts 150°
2026-04-28 13:30 31.79709 130.72135 893 ft 31 kts 152°
2026-04-28 13:30 31.79516 130.72266 890 ft 33 kts 149°
2026-04-28 13:30 31.79314 130.72402 888 ft 33 kts 150°
2026-04-28 13:30 31.79177 130.72494 887 ft 19 kts 148°
2026-04-28 13:31 31.79177 130.72687 883 ft 14 kts 24°
2026-04-28 13:31 31.79266 130.72663 886 ft 17 kts 332°
2026-04-28 13:31 31.79590 130.72448 894 ft 91 kts 330°
2026-04-28 13:32 31.80333 130.71946 912 ft 153 kts 329°
2026-04-28 13:32 31.81342 130.71241 1304 ft 177 kts 329°
2026-04-28 13:32 31.82077 130.70133 2127 ft 177 kts 284°
2026-04-28 13:32 31.82334 130.68627 2535 ft 203 kts 290°
2026-04-28 13:33 31.83349 130.67393 2923 ft 227 kts 333°
2026-04-28 13:33 31.84997 130.67067 3236 ft 256 kts 358°
2026-04-28 13:33 31.86712 130.67711 3922 ft 264 kts 21°
2026-04-28 13:33 31.88197 130.69028 4488 ft 272 kts 34°
2026-04-28 13:34 31.89331 130.70807 5231 ft 272 kts 62°
2026-04-28 13:34 31.89706 130.72961 6207 ft 271 kts 88°
2026-04-28 13:34 31.89229 130.75092 7118 ft 273 kts 111°
2026-04-28 13:34 31.88307 130.77051 8083 ft 275 kts 123°
2026-04-28 13:35 31.87196 130.78903 8976 ft 282 kts 134°
2026-04-28 13:35 31.85645 130.80273 9870 ft 285 kts 146°
2026-04-28 13:35 31.84008 130.81673 10542 ft 302 kts 143°
2026-04-28 13:35 31.82154 130.83050 10904 ft 327 kts 152°